2024/03/29 00:00:00, 6.2, 7.9
2024/03/29 00:10:00, 5.4, 8.1
2024/03/29 00:20:00, 5.3, 8.0
2024/03/29 00:30:00, 5.3, 7.7
2024/03/29 00:40:00, 5.2, 7.7
2024/03/29 00:50:00, 4.9, 7.9
2024/03/29 01:00:00, 4.9, 7.8
2024/03/29 01:10:00, 4.9, 7.9
2024/03/29 01:20:00, 5.1, 7.9
2024/03/29 01:30:00, 5.3, 7.9
2024/03/29 01:40:00, 5.3, 8.0
2024/03/29 01:50:00, 5.3, 7.9
2024/03/29 02:00:00, 5.3, 8.0
2024/03/29 02:10:00, 5.3, 8.0
2024/03/29 02:20:00, 5.3, 8.0
2024/03/29 02:30:00, 5.3, 7.9
2024/03/29 02:40:00, 5.3, 8.2
2024/03/29 02:50:00, 5.3, 8.2
2024/03/29 03:00:00, 5.3, 8.2
2024/03/29 03:10:00, 5.3, 8.0
2024/03/29 03:20:00, 5.3, 8.0
2024/03/29 03:30:00, 5.3, 8.1
2024/03/29 03:40:00, 5.3, 8.1
2024/03/29 03:50:00, 5.3, 7.8
2024/03/29 04:00:00, 5.3, 7.6
2024/03/29 04:10:00, 5.3, 7.6
2024/03/29 04:20:00, 5.3, 7.5
2024/03/29 04:30:00, 5.3, 7.7
2024/03/29 04:40:00, 5.3, 7.2
2024/03/29 04:50:00, 5.3, 7.3
2024/03/29 05:00:00, 5.3, 7.4
2024/03/29 05:10:00, 5.3, 7.2
2024/03/29 05:20:00, 5.3, 6.9
2024/03/29 05:30:00, 5.3, 6.8
2024/03/29 05:40:00, 5.3, 7.0
2024/03/29 05:50:00, 5.3, 6.9
2024/03/29 06:00:00, 5.3, 7.6
2024/03/29 06:10:00, 5.3, 7.8
2024/03/29 06:20:00, 5.3, 7.4
2024/03/29 06:30:00, 5.3, 6.9
2024/03/29 06:40:00, 5.3, 7.1
2024/03/29 06:50:00, 5.3, 6.7
2024/03/29 07:00:00, 5.3, 7.0
2024/03/29 07:10:00, 5.3, 7.1
2024/03/29 07:20:00, 5.3, 7.0
2024/03/29 07:30:00, 5.3, 7.4
2024/03/29 07:40:00, 5.3, 7.1
2024/03/29 07:50:00, 5.3, 7.1
2024/03/29 08:00:00, 5.3, 7.6
2024/03/29 08:10:00, 5.3, 8.0
2024/03/29 08:20:00, 5.3, 8.2
2024/03/29 08:30:00, 5.3, 8.7
2024/03/29 08:40:00, 5.3, 8.6
2024/03/29 08:50:00, 5.3, 8.9
2024/03/29 09:00:00, 5.3, 9.6
2024/03/29 09:10:00, 5.3, 9.9
2024/03/29 09:20:00, 5.3,10.3
2024/03/29 09:30:00, 5.3,10.6
2024/03/29 09:40:00, 5.3,11.2
2024/03/29 09:50:00, 5.3,11.4
2024/03/29 10:00:00,26.6,12.3
2024/03/29 10:10:00,76.4,12.8
2024/03/29 10:20:00,76.4,13.0
2024/03/29 10:30:00,76.4,13.3
2024/03/29 10:40:00,76.4,13.8
2024/03/29 10:50:00,76.4,13.9
2024/03/29 11:00:00,76.4,14.5
2024/03/29 11:10:00,76.4,14.6
2024/03/29 11:20:00,76.4,15.1
2024/03/29 11:30:00,77.0,15.3
2024/03/29 11:40:00,76.8,15.3
2024/03/29 11:50:00,76.2,15.4
2024/03/29 12:00:00,75.3,15.3
2024/03/29 12:10:00,75.3,15.0
2024/03/29 12:20:00,75.3,14.6
2024/03/29 12:30:00,74.9,14.7
2024/03/29 12:40:00,74.9,15.0
2024/03/29 12:50:00,74.9,15.0
2024/03/29 13:00:00,74.9,15.0
2024/03/29 13:10:00,74.9,15.0
2024/03/29 13:20:00,74.9,15.4
2024/03/29 13:30:00,74.9,15.4
2024/03/29 13:40:00,74.9,16.1
2024/03/29 13:50:00,74.9,16.3
2024/03/29 14:00:00,74.9,16.3
2024/03/29 14:10:00,74.9,16.7
2024/03/29 14:20:00,74.9,16.7
2024/03/29 14:30:00,74.9,16.7
2024/03/29 14:40:00,74.9,16.5
2024/03/29 14:50:00,74.9,17.0
2024/03/29 15:00:00,74.9,16.3
2024/03/29 15:10:00,74.9,15.8
2024/03/29 15:20:00,74.9,15.0
2024/03/29 15:30:00,74.9,14.6
2024/03/29 15:40:00,74.9,13.8
2024/03/29 15:50:00,74.9,13.5
2024/03/29 16:00:00,74.9,12.8
2024/03/29 16:10:00,74.9,12.4
2024/03/29 16:20:00,74.9,11.9
2024/03/29 16:30:00,74.9,11.3
2024/03/29 16:40:00,74.9,10.9
2024/03/29 16:50:00,74.9,10.8
2024/03/29 17:00:00,74.9,10.7
2024/03/29 17:10:00,74.9,10.5
2024/03/29 17:20:00,74.9,10.1
2024/03/29 17:30:00,74.9,10.1
2024/03/29 17:40:00,74.9, 9.5
2024/03/29 17:50:00,74.9, 9.3
2024/03/29 18:00:00,74.9, 9.0
2024/03/29 18:10:00,74.9, 9.1
2024/03/29 18:20:00,74.9, 9.4
2024/03/29 18:30:00,74.9, 8.6
2024/03/29 18:40:00,74.9, 8.5
2024/03/29 18:50:00,74.9, 8.6
2024/03/29 19:00:00,74.9, 8.2
2024/03/29 19:10:00,74.9, 8.4
2024/03/29 19:20:00,74.9, 7.9
2024/03/29 19:30:00,74.9, 8.4
2024/03/29 19:40:00,74.9, 8.3
2024/03/29 19:50:00,74.9, 8.3
2024/03/29 20:00:00,74.9, 8.3
2024/03/29 20:10:00,74.9, 8.3
2024/03/29 20:20:00,74.9, 7.9
2024/03/29 20:30:00,74.9, 8.0
2024/03/29 20:40:00,74.9, 7.7
2024/03/29 20:50:00,74.9, 7.4
2024/03/29 21:00:00,74.9, 7.4
2024/03/29 21:10:00,74.9, 7.4
2024/03/29 21:20:00,74.9, 7.2
2024/03/29 21:30:00,74.9, 7.0
2024/03/29 21:40:00,74.9, 7.4
2024/03/29 21:50:00,74.9, 6.8
2024/03/29 22:00:00,74.9, 6.7
2024/03/29 22:10:00,74.9, 6.7
2024/03/29 22:20:00,74.9, 6.6
2024/03/29 22:30:00,74.9, 6.6
2024/03/29 22:40:00,74.9, 6.6
2024/03/29 22:50:00,74.9, 6.6
2024/03/29 23:00:00,74.9, 6.5
2024/03/29 23:10:00,74.9, 6.7
2024/03/29 23:20:00,74.9, 6.6
2024/03/29 23:30:00,74.9, 6.4
2024/03/29 23:40:00,74.9, 6.2
2024/03/29 23:50:00,74.9, 6.5
